• In Belarus
  • List of Countries
  • For 7 days
  • Water Temperature
  • Satellite Maps
  • Weather Map
  • Weather Widgets
  • user-avatar
    Login

    Hourly Weather Rudawica

    Today, 15 August, Wednesday

    Time Temperature Precipitation Wind Pressure Humidity
    00:00 +19°C° 0 mm 3 mps 749 mmHg 81%
    01:00 +18°C° 0 mm 3 mps 749 mmHg 83%
    02:00 +18°C° 0 mm 3 mps 750 mmHg 85%
    03:00 +18°C° 0 mm 3 mps 750 mmHg 87%
    04:00 +17°C° 0 mm 3 mps 750 mmHg 89%
    05:00 +18°C° 0 mm 4 mps 751 mmHg 87%
    06:00 +18°C° 0 mm 4 mps 751 mmHg 85%
    07:00 +18°C° 0 mm 4 mps 751 mmHg 83%
    08:00 +19°C° 0 mm 4 mps 752 mmHg 78%
    09:00 +20°C° 0 mm 4 mps 752 mmHg 72%
    10:00 +21°C° 0 mm 4 mps 752 mmHg 66%
    11:00 +22°C° 0 mm 4 mps 752 mmHg 60%
    12:00 +23°C° 0 mm 4 mps 752 mmHg 54%
    13:00 +26°C° 0 mm 4 mps 752 mmHg 48%
    14:00 +26°C° 0 mm 4 mps 752 mmHg 48%
    15:00 +26°C° 0 mm 3 mps 752 mmHg 48%
    16:00 +26°C° 0 mm 3 mps 752 mmHg 47%
    17:00 +25°C° 0 mm 3 mps 752 mmHg 52%
    18:00 +24°C° 0 mm 2 mps 752 mmHg 57%
    19:00 +23°C° 0 mm 1 mps 752 mmHg 62%
    20:00 +22°C° 0 mm 1 mps 752 mmHg 65%
    21:00 +21°C° 0 mm 1 mps 753 mmHg 68%
    22:00 +20°C° 0 mm 1 mps 753 mmHg 71%
    23:00 +19°C° 0 mm 1 mps 753 mmHg 73%

    Tomorrow, 16 August, Thursday

    Time Temperature Precipitation Wind Pressure Humidity
    00:00 +19°C° 0 mm 1 mps 753 mmHg 74%
    01:00 +19°C° 0 mm 1 mps 753 mmHg 75%
    02:00 +18°C° 0 mm 1 mps 753 mmHg 76%
    03:00 +18°C° 0 mm 1 mps 753 mmHg 77%
    04:00 +18°C° 0 mm 1 mps 753 mmHg 78%
    05:00 +19°C° 0 mm 1 mps 753 mmHg 74%
    06:00 +20°C° 0 mm 1 mps 753 mmHg 70%
    07:00 +21°C° 0 mm 1 mps 753 mmHg 65%
    08:00 +23°C° 0 mm 1 mps 753 mmHg 59%
    09:00 +25°C° 0 mm 1 mps 753 mmHg 53%
    10:00 +27°C° 0 mm 1 mps 753 mmHg 47%
    11:00 +28°C° 0 mm 1 mps 753 mmHg 44%
    12:00 +28°C° 0 mm 2 mps 752 mmHg 42%
    13:00 +29°C° 0 mm 2 mps 752 mmHg 39%
    14:00 +29°C° 0 mm 2 mps 752 mmHg 40%
    15:00 +29°C° 0 mm 2 mps 751 mmHg 40%
    16:00 +29°C° 0 mm 2 mps 751 mmHg 41%
    17:00 +27°C° 0 mm 2 mps 751 mmHg 46%
    18:00 +26°C° 0 mm 2 mps 751 mmHg 50%
    19:00 +25°C° 0 mm 2 mps 751 mmHg 55%
    20:00 +24°C° 0 mm 2 mps 751 mmHg 59%
    21:00 +23°C° 0 mm 2 mps 751 mmHg 62%
    22:00 +21°C° 0 mm 2 mps 751 mmHg 66%
    23:00 +20°C° 0 mm 2 mps 751 mmHg 68%

    Day after tomorrow, 17 August, Friday

    Time Temperature Precipitation Wind Pressure Humidity
    00:00 +20°C° 0 mm 2 mps 751 mmHg 70%
    01:00 +19°C° 0 mm 2 mps 751 mmHg 72%
    02:00 +19°C° 0 mm 2 mps 751 mmHg 73%
    03:00 +19°C° 0 mm 2 mps 750 mmHg 74%
    04:00 +18°C° 0 mm 2 mps 750 mmHg 75%
    05:00 +20°C° 0 mm 2 mps 750 mmHg 72%
    06:00 +21°C° 0 mm 2 mps 750 mmHg 68%
    07:00 +23°C° 0 mm 2 mps 750 mmHg 65%
    08:00 +25°C° 0 mm 2 mps 750 mmHg 58%
    09:00 +27°C° 0 mm 2 mps 750 mmHg 51%
    10:00 +29°C° 0 mm 2 mps 750 mmHg 44%
    11:00 +30°C° 0 mm 2 mps 750 mmHg 42%
    12:00 +30°C° 0 mm 2 mps 750 mmHg 40%
    13:00 +31°C° 0 mm 2 mps 749 mmHg 37%
    14:00 +31°C° 0 mm 1 mps 749 mmHg 37%
    15:00 +31°C° 0 mm 1 mps 749 mmHg 37%
    16:00 +31°C° 0 mm 1 mps 749 mmHg 37%
    17:00 +30°C° 0 mm 1 mps 749 mmHg 41%
    18:00 +28°C° 0 mm 1 mps 749 mmHg 45%
    19:00 +27°C° 0 mm 1 mps 749 mmHg 49%
    20:00 +26°C° 0 mm 1 mps 750 mmHg 52%
    21:00 +25°C° 0 mm 1 mps 750 mmHg 54%
    22:00 +24°C° 0 mm 1 mps 750 mmHg 56%
    23:00 +24°C° 0 mm 1 mps 751 mmHg 60%

    18 August, Saturday

    Time Temperature Precipitation Wind Pressure Humidity
    00:00 +23°C° 0 mm 2 mps 751 mmHg 63%
    01:00 +21°C° 0 mm 2 mps 751 mmHg 67%
    02:00 +21°C° 0.1 mm 2 mps 751 mmHg 72%
    03:00 +20°C° 0.1 mm 2 mps 751 mmHg 78%
    04:00 +19°C° 0.1 mm 2 mps 751 mmHg 83%
    05:00 +20°C° 0.2 mm 2 mps 752 mmHg 84%
    06:00 +20°C° 0.2 mm 3 mps 752 mmHg 85%
    07:00 +20°C° 0.2 mm 3 mps 753 mmHg 86%
    08:00 +21°C° 0.1 mm 3 mps 753 mmHg 82%
    09:00 +21°C° 0.1 mm 3 mps 753 mmHg 78%
    10:00 +22°C° 0.1 mm 3 mps 754 mmHg 74%
    11:00 +25°C° 0 mm 3 mps 753 mmHg 66%
    12:00 +26°C° 0 mm 2 mps 753 mmHg 59%
    13:00 +28°C° 0 mm 2 mps 753 mmHg 51%
    14:00 +28°C° 0 mm 2 mps 753 mmHg 50%
    15:00 +28°C° 0 mm 2 mps 753 mmHg 49%
    16:00 +28°C° 0 mm 2 mps 753 mmHg 47%
    17:00 +27°C° 0 mm 2 mps 753 mmHg 51%
    18:00 +26°C° 0 mm 2 mps 753 mmHg 55%
    19:00 +24°C° 0 mm 2 mps 754 mmHg 58%
    20:00 +23°C° 0 mm 1 mps 754 mmHg 60%
    21:00 +22°C° 0 mm 1 mps 754 mmHg 61%
    22:00 +21°C° 0 mm 1 mps 755 mmHg 62%
    23:00 +21°C° 0 mm 1 mps 755 mmHg 62%

    19 August, Sunday

    Time Temperature Precipitation Wind Pressure Humidity
    00:00 +20°C° 0 mm 1 mps 755 mmHg 62%
    01:00 +20°C° 0 mm 1 mps 755 mmHg 63%
    02:00 +19°C° 0 mm 1 mps 755 mmHg 64%
    03:00 +19°C° 0 mm 1 mps 755 mmHg 66%
    04:00 +18°C° 0 mm 1 mps 755 mmHg 67%
    05:00 +19°C° 0 mm 1 mps 755 mmHg 65%
    06:00 +20°C° 0 mm 1 mps 755 mmHg 62%
    07:00 +21°C° 0 mm 1 mps 756 mmHg 59%
    08:00 +23°C° 0 mm 1 mps 756 mmHg 53%
    09:00 +25°C° 0 mm 1 mps 756 mmHg 46%
    10:00 +27°C° 0 mm 1 mps 756 mmHg 39%
    11:00 +28°C° 0 mm 2 mps 756 mmHg 37%
    12:00 +29°C° 0 mm 2 mps 755 mmHg 34%
    13:00 +29°C° 0 mm 2 mps 755 mmHg 31%
    14:00 +29°C° 0 mm 2 mps 755 mmHg 31%
    15:00 +29°C° 0 mm 2 mps 755 mmHg 32%
    16:00 +29°C° 0 mm 2 mps 754 mmHg 32%
    17:00 +27°C° 0 mm 2 mps 754 mmHg 38%
    18:00 +26°C° 0 mm 2 mps 754 mmHg 44%
    19:00 +24°C° 0 mm 1 mps 754 mmHg 50%
    20:00 +23°C° 0 mm 1 mps 755 mmHg 53%
    21:00 +22°C° 0 mm 1 mps 755 mmHg 56%
    22:00 +21°C° 0 mm 1 mps 755 mmHg 60%
    23:00 +21°C° 0 mm 1 mps 755 mmHg 62%

    20 August, Monday

    Time Temperature Precipitation Wind Pressure Humidity
    00:00 +20°C° 0 mm 1 mps 755 mmHg 65%
    01:00 +20°C° 0 mm 1 mps 755 mmHg 67%
    02:00 +19°C° 0 mm 1 mps 754 mmHg 68%
    03:00 +19°C° 0 mm 1 mps 754 mmHg 69%
    04:00 +19°C° 0 mm 1 mps 754 mmHg 69%
    05:00 +20°C° 0 mm 1 mps 754 mmHg 65%
    06:00 +21°C° 0 mm 1 mps 754 mmHg 61%
    07:00 +22°C° 0 mm 1 mps 754 mmHg 57%
    08:00 +25°C° 0 mm 1 mps 754 mmHg 50%
    09:00 +27°C° 0 mm 1 mps 754 mmHg 44%
    10:00 +29°C° 0 mm 1 mps 754 mmHg 37%
    11:00 +30°C° 0 mm 1 mps 754 mmHg 35%
    12:00 +31°C° 0 mm 2 mps 754 mmHg 34%
    13:00 +31°C° 0 mm 2 mps 753 mmHg 32%
    14:00 +31°C° 0 mm 2 mps 753 mmHg 32%
    15:00 +31°C° 0 mm 2 mps 753 mmHg 32%
    16:00 +31°C° 0 mm 2 mps 752 mmHg 33%
    17:00 +30°C° 0 mm 2 mps 752 mmHg 38%
    18:00 +28°C° 0 mm 2 mps 752 mmHg 44%
    19:00 +26°C° 0 mm 1 mps 752 mmHg 49%
    20:00 +25°C° 0 mm 1 mps 753 mmHg 52%
    21:00 +24°C° 0 mm 1 mps 753 mmHg 55%
    22:00 +23°C° 0 mm 1 mps 753 mmHg 58%
    23:00 +23°C° 0 mm 1 mps 753 mmHg 61%
    Show more